Wind_Speed
16 14 14 13 13 13 14 14 14 15 15 16 17 17 18 18 18 18 19 19 19 19 19 19 19 19 19 19 19 19 19 19 19 19 19 19 20 20 19 19 19 18 18 17 16 16 15 15 14 14 13 13 12 12 11 11 10 10 10 10 10 10 10 10 11 11 12 12 13 13 14 14 14 14 15 15 15 16 16 17 18 18 19 19 20 20
14 13 13 13 13 14 14 14 14 15 15 16 16 17 17 18 18 18 18 18 19 19 19 19 19 19 19 19 19 19 19 19 19 20 20 20 20 20 20 20 20 19 19 18 17 17 16 16 15 15 14 14 14 13 13 13 12 12 11 11 11 11 11 11 11 12 12 13 14 14 15 15 15 16 16 16 17 17 18 18 19 19 20 20 21 22
13 13 13 14 14 14 14 14 14 15 15 15 16 16 17 17 18 18 18 18 18 18 18 18 19 19 19 19 19 19 19 19 20 20 20 20 21 21 21 21 20 20 20 19 19 18 17 17 16 16 15 15 15 15 14 14 14 14 13 13 13 13 13 13 14 14 14 15 15 16 16 17 17 17 18 18 18 19 19 20 20 21 21 22 23 23
13 13 14 14 14 14 14 14 15 15 15 15 16 16 16 17 17 17 18 18 18 18 18 18 18 18 18 18 19 19 19 19 19 20 20 20 20 20 20 20 20 20 20 20 19 19 18 18 17 17 16 16 16 16 16 16 16 16 15 15 15 15 15 16 16 16 17 17 18 18 18 19 19 19 20 20 20 21 21 22 22 23 23 24 25 25
14 14 14 14 14 14 14 15 15 15 15 15 16 16 16 16 17 17 17 17 17 17 17 17 17 18 18 18 18 18 18 19 19 19 19 19 20 20 20 20 20 20 19 19 19 19 19 19 18 18 18 17 17 17 17 17 17 17 17 17 17 18 18 18 18 19 19 19 19 20 20 21 21 21 21 22 22 23 23 24 24 25 25 26 27 27
14 14 14 14 14 14 15 15 15 15 16 16 16 16 16 16 17 17 17 17 17 17 17 17 17 17 17 17 17 17 18 18 18 18 19 19 19 19 19 19 19 19 19 19 19 19 19 19 19 19 19 19 19 19 19 19 19 19 19 19 19 20 20 20 21 21 21 21 22 22 22 23 23 23 24 24 24 25 25 26 26 27 27 28 28 29
14 14 14 14 14 15 15 15 16 16 16 16 16 16 17 17 17 17 17 17 17 17 17 17 17 17 17 17 17 18 18 18 18 18 18 18 19 19 19 19 19 19 19 19 19 19 19 19 19 20 20 20 20 20 21 21 21 21 21 21 21 21 22 22 23 23 23 24 24 24 24 25 25 25 26 26 27 27 28 28 29 29 30 30 30 31
14 14 14 15 15 15 16 16 16 17 17 16 16 16 16 17 17 17 17 17 17 17 17 17 17 17 18 18 18 18 18 18 18 18 18 18 19 19 19 19 19 19 19 19 19 19 19 19 19 20 20 20 21 21 22 22 22 22 22 23 23 23 23 24 24 25 25 26 26 26 27 27 28 28 28 29 29 30 30 30 31 31 32 32 32 32
14 14 15 15 16 16 16 17 17 17 17 17 17 17 16 17 17 17 17 17 17 17 17 17 17 17 17 18 18 18 18 19 19 19 19 19 19 19 19 19 19 19 19 19 19 19 19 19 19 19 20 20 21 21 22 22 23 23 23 23 24 24 24 25 25 26 27 27 28 28 29 29 30 30 30 31 31 32 32 32 33 33 33 34 34 34
14 15 15 16 16 17 17 17 17 18 18 18 17 17 17 17 17 17 17 17 17 17 17 17 17 17 17 17 18 18 18 18 19 19 19 19 19 19 19 19 19 19 19 19 19 19 19 19 19 19 19 20 20 21 22 22 22 23 23 23 24 24 25 25 26 27 27 28 28 29 30 30 31 31 32 32 33 33 33 34 34 35 35 35 35 35
15 15 16 16 17 17 17 17 18 18 18 18 18 18 18 18 17 17 17 17 17 17 17 17 17 17 17 17 17 18 18 18 18 19 19 19 20 20 20 20 20 20 20 20 20 20 20 20 19 20 20 20 21 21 22 22 23 23 23 23 24 24 25 25 26 27 27 28 29 29 30 30 31 32 32 33 33 34 34 35 35 35 35 36 36 36
15 16 16 16 17 17 18 18 18 19 19 18 18 18 18 18 18 18 17 17 17 17 17 17 17 17 17 17 17 17 17 18 18 18 19 19 20 20 20 20 20 20 20 21 21 21 21 20 20 20 21 21 22 22 23 23 24 24 24 24 24 25 25 25 26 27 27 28 28 29 30 30 31 31 32 32 33 33 34 34 35 35 35 36 36 36
16 16 16 17 17 17 18 18 19 19 19 19 19 18 18 18 18 18 17 17 17 17 17 17 17 17 18 18 17 17 17 18 18 18 19 19 20 20 20 20 20 21 21 21 21 21 21 21 21 21 22 22 23 23 24 24 25 25 25 25 25 25 25 26 26 27 27 28 29 29 30 30 30 31 31 32 32 33 33 34 34 34 35 35 35 36
16 16 17 17 17 18 18 18 18 19 19 19 19 18 18 18 18 18 18 17 17 18 18 17 17 18 18 18 18 18 18 18 18 19 19 19 20 20 20 20 21 21 21 21 21 22 22 22 22 22 22 23 23 24 25 25 25 26 26 26 26 26 26 26 27 27 28 28 29 29 30 30 30 31 31 31 32 32 32 33 33 33 34 34 34 35
17 17 17 17 18 18 18 19 18 18 19 19 19 18 18 18 18 18 18 18 18 18 18 18 18 18 19 19 19 19 18 18 19 19 19 20 21 21 21 21 21 21 22 22 22 22 22 22 22 22 23 23 24 24 25 25 26 26 26 26 26 27 27 27 27 28 28 29 29 29 30 30 30 30 30 31 31 31 31 32 32 32 32 33 33 33
17 18 18 18 18 18 18 18 18 18 18 18 18 18 18 18 18 18 18 18 18 18 18 18 19 19 19 20 20 20 19 19 19 19 20 21 21 22 22 22 21 22 22 22 23 23 23 22 23 23 23 23 24 24 25 25 26 26 26 27 27 27 27 27 28 28 29 29 29 29 29 30 29 30 30 30 30 30 30 30 30 30 31 31 31 31
18 18 18 18 18 18 19 19 18 18 18 18 18 18 18 18 18 18 18 18 19 19 19 19 19 19 20 21 21 21 21 20 20 20 21 21 22 23 23 23 22 22 23 23 23 23 23 23 23 24 24 24 24 25 25 25 26 26 26 26 27 27 27 27 28 28 28 29 29 29 29 29 29 29 29 29 29 29 29 29 29 29 29 28 28 28
18 18 18 18 18 18 19 18 18 18 18 18 18 18 19 19 19 19 19 19 19 19 19 20 20 20 21 21 22 22 22 21 21 21 22 22 23 24 24 24 24 23 24 24 24 24 24 24 24 24 24 25 25 25 25 26 26 26 26 26 26 27 27 27 27 27 28 28 28 28 28 28 28 28 28 28 28 28 27 27 27 27 26 26 26 25
18 18 18 18 18 19 19 19 18 18 18 18 19 19 19 19 19 19 19 20 20 20 20 20 21 21 22 22 22 23 23 23 22 22 22 23 24 25 26 25 25 25 25 25 25 25 25 25 25 25 25 25 25 25 26 26 26 26 26 26 26 26 26 26 27 27 27 27 27 27 27 27 27 27 27 27 26 26 26 26 25 25 24 24 23 23
18 19 19 18 18 18 19 19 19 19 19 19 19 19 19 19 20 20 20 20 20 20 21 21 21 22 22 23 23 24 24 24 23 23 23 24 25 26 26 26 26 26 26 26 26 26 26 25 25 25 25 25 25 26 26 26 26 26 26 26 26 26 26 26 26 26 26 26 26 26 26 26 26 26 26 25 25 25 25 24 24 23 23 22 22 21
18 19 19 19 19 18 18 19 19 19 19 19 20 20 20 20 20 20 21 21 21 21 22 22 22 23 23 23 24 24 25 24 24 24 24 24 25 26 27 27 26 26 27 27 27 27 26 26 25 25 25 25 25 26 26 27 27 26 26 26 26 25 25 25 25 25 25 25 25 25 25 25 25 24 24 24 24 23 23 23 22 22 21 21 21 20
19 19 19 19 19 19 19 19 19 19 20 20 20 20 20 21 21 21 21 22 22 22 22 22 23 24 24 24 24 25 25 25 25 24 24 24 25 26 27 27 27 27 27 27 28 28 27 26 26 25 25 25 26 26 26 27 27 26 26 26 25 25 25 24 24 24 24 24 24 24 24 24 23 23 23 23 22 22 22 22 21 21 21 20 20 20
19 19 19 19 19 19 19 19 19 20 20 20 20 21 21 21 22 22 22 22 22 23 23 23 24 24 25 25 25 26 26 26 26 25 25 25 25 26 27 27 27 27 28 28 28 28 28 27 26 26 25 25 26 26 27 27 27 26 26 26 25 25 24 24 24 24 23 23 23 23 23 23 23 22 22 22 22 21 21 21 21 21 20 20 20 21
19 19 19 19 19 19 19 19 20 20 20 21 21 21 22 22 22 22 23 23 23 23 23 24 24 25 26 26 26 27 27 28 27 27 26 26 26 27 28 28 28 28 28 29 29 28 28 27 27 26 26 26 26 26 26 27 27 26 26 26 25 25 24 24 24 23 23 23 23 22 22 22 22 22 22 21 21 21 21 21 21 21 21 21 21 21
20 20 20 20 20 20 20 20 20 20 21 21 21 22 22 23 23 23 24 24 24 24 24 24 25 25 26 26 27 27 28 28 28 27 27 26 27 28 28 28 28 28 28 29 29 29 28 28 27 27 26 26 26 26 26 26 26 26 26 26 25 25 25 24 24 23 23 22 22 22 22 22 22 22 22 21 21 21 21 21 21 21 21 21 21 22
20 20 20 20 20 20 20 20 21 21 21 21 22 22 23 23 23 24 24 24 24 24 24 24 25 25 26 27 27 27 28 28 28 28 28 27 27 28 28 29 29 28 29 29 30 30 29 28 28 27 26 26 26 26 26 26 26 26 26 26 25 25 25 24 24 23 23 22 22 22 22 22 22 22 22 22 22 22 22 22 22 22 22 22 22 22
20 21 21 21 21 21 21 21 21 21 22 22 22 22 23 23 23 24 24 25 25 25 25 25 25 26 26 26 27 27 28 28 28 28 28 27 27 27 28 29 29 28 29 29 30 30 30 29 28 28 27 27 26 26 26 26 26 26 26 26 25 25 24 24 24 23 23 22 22 22 22 22 22 22 22 22 22 22 22 22 23 23 23 23 23 23
20 21 21 21 21 21 22 22 22 22 22 22 23 23 23 23 23 24 24 25 25 25 25 25 26 26 26 26 27 28 28 29 29 28 28 28 27 27 28 29 29 29 29 29 30 30 30 30 29 29 28 27 27 26 26 26 25 25 25 25 25 25 25 24 24 23 23 23 22 22 22 22 23 23 23 23 23 23 23 23 23 23 24 23 23 23
21 21 21 21 21 21 22 22 22 23 23 23 23 23 24 24 24 24 24 25 25 25 25 26 26 26 26 27 27 28 29 29 29 29 29 28 27 28 29 29 29 29 29 29 29 30 30 31 31 30 29 28 27 26 26 25 25 25 25 25 25 25 25 24 24 24 23 23 23 23 23 23 23 23 24 24 24 24 24 24 24 24 24 24 24 24
21 21 21 21 21 22 22 22 23 23 23 24 24 24 24 24 24 24 25 25 25 25 25 26 26 27 27 27 27 27 28 29 29 29 29 28 28 28 29 29 29 29 29 29 28 28 29 31 31 31 31 30 28 27 26 26 25 24 24 24 25 25 25 25 24 24 24 24 24 24 24 24 24 24 25 25 25 25 25 25 25 25 25 25 25 24
22 22 22 22 22 22 22 23 23 23 23 24 24 24 25 25 25 25 25 25 25 25 26 26 26 27 27 27 27 27 28 28 29 30 29 28 28 29 29 29 29 30 30 29 28 27 27 28 30 31 31 31 30 29 28 26 25 25 24 24 24 25 25 25 25 25 25 24 24 24 25 25 25 25 26 26 26 26 26 26 26 26 26 25 25 25
23 23 22 22 23 23 23 23 23 23 24 24 24 25 25 25 25 25 25 26 26 26 26 26 26 27 27 27 27 28 28 28 29 29 29 28 29 29 29 29 29 30 30 30 29 27 27 26 28 29 30 31 31 30 29 28 27 25 25 24 24 24 25 25 25 25 25 25 25 25 25 26 26 26 26 26 26 26 26 26 26 26 26 26 26 26
23 23 23 23 23 23 23 23 23 23 24 24 24 25 25 25 26 26 26 26 26 26 26 26 27 27 27 28 28 28 29 29 29 29 29 29 29 29 30 30 30 30 30 30 30 29 28 27 27 27 28 29 30 30 31 30 29 28 26 25 25 25 25 25 25 26 26 26 26 26 26 27 27 27 27 27 27 27 27 27 27 27 27 27 26 26
23 23 23 23 23 23 24 24 24 24 24 24 25 25 26 26 26 26 26 27 27 27 27 27 27 27 27 28 28 29 29 30 30 30 30 29 29 29 30 30 30 30 30 30 30 30 29 28 27 27 26 27 28 29 30 30 30 30 28 27 26 26 26 26 26 26 26 26 26 27 27 27 28 28 28 28 28 27 27 27 27 27 27 27 27 27
24 24 24 24 24 24 24 24 25 25 25 25 25 26 26 26 26 27 27 27 27 27 28 28 28 28 28 28 28 29 30 30 30 30 30 30 29 30 30 30 30 30 30 30 29 29 29 28 28 27 26 26 26 27 28 29 30 30 30 30 29 28 27 26 26 26 26 27 27 27 28 28 28 28 28 28 28 28 28 28 28 28 28 28 28 28
24 24 24 24 25 25 25 25 25 25 25 26 26 26 26 26 27 27 27 27 27 28 28 28 28 28 28 28 28 29 29 30 31 31 31 30 30 30 29 30 30 30 30 30 29 29 28 28 28 27 27 26 26 26 27 28 29 30 30 31 31 30 29 28 27 26 26 27 27 28 28 28 28 28 28 28 28 28 28 28 28 28 28 28 28 28
25 25 25 25 25 25 25 26 26 26 26 26 27 27 27 27 27 27 27 28 28 28 28 28 29 29 29 29 29 29 30 30 31 31 31 31 30 30 29 30 30 30 30 30 29 29 29 28 27 27 27 26 25 25 25 26 27 28 29 31 32 32 31 30 29 28 27 27 27 28 28 28 29 29 29 29 28 28 28 28 28 28 28 28 28 28
26 26 26 26 26 26 26 26 27 27 27 27 27 27 27 27 27 27 27 28 28 28 28 28 29 29 29 30 30 30 30 31 31 31 31 31 31 30 30 30 30 30 30 30 30 29 29 28 28 27 26 26 26 25 25 25 26 27 28 29 31 32 32 32 32 31 29 29 28 28 28 29 29 29 29 29 29 28 28 28 28 29 29 29 29 29
26 26 27 27 27 27 27 27 27 27 27 27 27 27 27 27 27 27 27 28 28 28 28 28 28 29 29 30 30 30 30 31 31 31 31 31 31 31 30 30 30 30 31 31 30 30 30 29 28 28 27 26 26 25 25 25 25 26 27 28 29 30 32 33 33 32 32 31 30 29 29 29 29 29 29 29 28 28 28 28 29 29 29 29 29 29
26 27 27 27 27 27 27 27 28 28 28 28 28 28 28 28 27 27 27 27 27 28 28 28 28 29 29 29 30 30 30 30 31 31 31 31 31 31 31 30 30 30 31 30 30 30 30 29 29 29 28 27 26 25 25 24 25 25 26 27 28 29 30 31 32 33 33 32 32 31 30 30 29 29 29 29 28 28 28 29 29 29 29 29 29 29
26 27 27 27 27 27 27 28 28 28 28 28 28 28 28 28 28 27 27 27 28 28 28 28 28 29 29 30 30 30 30 31 31 31 31 31 31 31 30 30 30 30 30 30 30 30 30 29 29 29 28 28 27 26 25 25 25 26 26 26 27 28 29 30 31 32 33 33 33 33 32 31 30 30 29 29 28 28 28 29 29 29 29 29 29 29
27 27 27 27 27 27 28 28 28 28 28 28 28 28 28 28 28 28 28 28 28 28 28 28 28 29 29 30 31 31 31 31 31 31 31 30 30 30 30 30 30 30 30 30 30 29 29 29 29 28 28 28 27 26 26 26 26 26 26 26 26 27 28 28 30 31 32 32 33 33 33 32 32 31 30 29 29 29 29 29 29 29 29 29 29 29
28 28 28 28 28 28 28 28 28 28 28 28 28 28 28 28 28 28 28 28 28 28 29 29 29 29 29 30 30 31 31 31 31 31 30 30 30 30 30 30 30 30 30 29 29 29 29 29 29 28 28 28 27 26 26 26 26 26 27 27 26 27 27 28 29 30 31 32 32 33 33 33 32 32 31 30 30 30 29 29 29 29 29 29 29 29
29 29 29 29 29 29 29 29 29 29 28 28 28 28 29 29 28 28 28 28 28 29 29 29 29 29 29 29 30 31 31 31 31 31 31 30 30 30 30 30 30 30 29 29 29 29 29 29 28 28 28 27 27 27 26 26 26 26 27 27 27 26 27 27 28 29 30 31 32 32 33 33 32 32 31 31 31 31 30 30 30 30 30 30 30 30
30 30 30 30 30 30 30 29 29 29 29 29 29 29 29 29 29 28 28 28 29 29 29 29 29 29 29 30 30 30 31 31 31 31 31 31 31 30 30 30 30 30 29 29 29 29 28 28 28 28 28 27 27 27 27 26 26 26 26 26 26 26 26 27 28 28 29 30 31 32 32 33 32 32 32 31 31 31 31 31 31 31 31 31 31 31
31 31 31 31 31 31 30 30 30 30 29 29 29 29 29 29 29 29 29 29 29 29 29 29 29 29 29 30 30 30 30 31 31 31 31 31 31 31 31 31 30 30 29 29 29 28 28 28 28 28 28 27 27 27 27 27 27 26 26 26 26 26 26 27 27 28 29 29 30 31 32 32 32 32 32 32 32 31 31 31 31 31 31 31 31 31
32 32 32 32 32 31 31 31 30 30 30 29 29 29 30 29 29 29 29 29 29 29 29 30 30 29 29 30 30 30 30 30 30 31 31 31 32 31 31 31 31 30 30 29 28 28 28 27 27 27 27 27 27 27 27 27 27 27 27 27 26 26 26 27 27 28 28 29 29 30 31 31 31 31 32 32 31 31 31 31 31 31 31 31 31 32
33 33 32 32 32 31 31 31 30 30 30 29 29 30 30 30 30 30 30 30 30 29 29 29 30 29 30 30 30 29 29 29 30 30 31 31 32 32 32 32 31 31 30 29 28 28 27 26 26 26 26 26 27 27 27 27 27 27 27 27 27 26 26 27 27 27 28 28 29 29 30 30 30 31 31 31 31 31 31 31 31 31 31 31 31 31
33 33 32 32 31 31 31 30 30 30 29 29 29 29 30 30 30 30 29 29 29 29 29 30 29 29 29 29 29 29 29 29 29 30 31 31 32 32 32 32 32 31 31 30 29 28 27 26 26 25 26 26 26 26 26 26 27 27 27 26 26 26 26 26 27 27 27 28 28 29 29 29 30 30 30 30 30 30 30 30 30 30 30 30 30 30
33 33 32 31 31 30 30 30 30 29 29 29 29 29 29 30 30 30 29 29 29 29 30 30 30 29 29 29 29 29 29 29 29 30 31 31 32 32 32 32 32 32 31 30 30 29 28 27 26 26 26 26 26 26 26 26 26 26 26 26 26 26 26 26 26 27 27 27 28 28 29 29 29 30 30 30 30 30 29 29 29 29 29 29 30 30
33 33 32 31 30 30 29 29 29 29 29 29 29 29 29 29 29 29 29 29 29 30 30 30 30 29 29 29 29 28 28 29 29 30 30 31 31 32 32 32 32 31 31 31 30 29 28 27 26 26 26 26 26 26 26 26 26 26 26 26 26 26 26 26 26 26 27 27 28 28 29 29 29 29 30 30 30 30 29 29 28 28 29 29 29 30
Wind_Direction
285 285 285 286 287 289 290 292 294 296 298 300 303 304 306 306 307 307 307 307 306 306 307 307 307 307 307 307 306 306 305 305 304 304 303 303 302 302 302 302 302 303 303 303 304 305 307 309 311 313 314 316 316 316 316 315 313 310 306 301 295 289 283 277 272 268 264 261 259 258 258 258 258 259 259 259 259 259 259 259 259 260 261 261 262 262
286 286 287 288 289 291 293 295 297 299 301 303 304 306 307 307 308 307 307 306 306 305 305 304 304 303 303 302 302 302 301 301 301 301 300 300 300 300 300 301 301 302 302 302 303 304 305 307 308 310 311 311 312 311 310 309 307 304 301 298 294 290 285 281 276 272 269 266 264 263 262 262 262 262 262 262 262 262 262 263 263 263 264 264 264 265
286 287 288 290 292 294 296 298 300 302 303 304 305 306 307 307 307 307 306 306 305 304 304 303 302 302 301 301 300 300 299 299 298 298 298 298 297 298 298 298 299 300 300 301 301 302 303 304 304 305 306 306 306 306 305 303 302 299 297 294 290 286 282 279 275 273 271 269 268 267 266 266 266 266 267 267 267 267 266 266 266 266 266 266 266 266
287 289 291 293 295 297 299 301 302 304 305 305 306 306 306 306 306 305 305 305 304 304 303 302 302 302 301 300 300 299 299 298 298 297 297 297 297 297 297 297 298 298 298 299 299 300 300 300 300 300 300 300 299 299 298 297 296 294 292 290 287 284 281 279 276 274 273 272 271 270 270 270 270 270 270 270 270 270 269 269 268 268 267 266 266 266
289 291 294 296 298 300 302 303 304 305 306 306 306 306 305 305 304 304 304 304 303 303 303 302 301 301 301 300 300 299 299 299 298 298 298 298 298 298 298 298 298 298 299 299 299 299 299 298 298 297 296 295 294 293 292 291 290 289 288 286 285 284 282 280 279 277 276 275 275 274 274 274 273 273 273 273 272 272 271 270 269 268 267 267 266 265
292 294 296 298 301 303 303 304 305 305 305 306 305 305 305 304 303 303 302 302 302 302 302 302 302 302 302 301 301 301 300 300 300 300 300 301 301 301 302 302 302 302 302 302 301 301 300 299 298 297 296 294 292 291 289 288 286 285 285 284 283 283 282 282 281 280 279 279 278 277 277 276 276 275 275 274 273 273 272 271 270 269 268 267 267 266
294 297 299 301 302 303 304 304 304 304 305 305 304 304 303 302 302 301 301 301 302 302 302 303 303 303 303 303 303 303 303 303 303 303 304 304 305 305 305 306 306 306 306 305 305 304 303 302 301 299 298 296 294 292 291 289 287 285 284 283 282 281 281 280 280 280 280 279 279 278 278 277 276 276 275 274 274 273 272 272 271 271 270 269 269 268
297 299 301 303 303 304 304 304 304 303 303 303 303 302 302 301 301 301 301 301 301 302 302 303 304 304 304 304 304 305 305 306 306 306 306 307 307 307 307 308 308 308 307 307 306 306 305 304 303 302 300 298 297 295 293 292 290 288 287 285 284 283 282 281 280 280 279 279 279 278 277 277 276 275 275 274 273 273 272 272 271 271 271 270 270 270
299 301 302 303 304 304 303 303 303 302 302 302 302 301 301 300 300 300 301 301 302 302 302 303 303 304 304 304 305 305 306 307 307 307 308 307 307 307 307 307 307 307 307 306 306 305 305 304 304 302 301 299 298 296 294 293 292 291 290 289 288 287 285 284 283 282 281 280 279 279 278 277 277 276 275 274 274 273 272 272 271 271 271 271 270 270
300 301 302 302 302 302 302 302 302 301 301 301 301 301 300 300 300 300 301 301 302 302 303 303 302 303 302 303 304 304 305 305 306 306 306 306 305 305 305 305 305 305 305 305 305 305 304 304 303 302 301 299 297 295 294 293 292 292 291 290 290 289 288 286 285 284 283 282 281 280 279 278 278 277 276 276 275 275 274 274 273 273 272 272 272 271
300 301 301 301 301 301 301 301 300 300 300 300 300 300 300 300 301 301 301 302 302 302 302 302 302 302 301 301 302 302 303 303 303 303 303 303 303 303 303 303 303 303 303 303 303 303 303 303 303 301 299 297 295 294 292 292 291 291 291 290 289 289 288 287 285 284 283 282 281 280 279 279 278 278 277 277 276 276 276 275 275 275 275 274 274 274
299 299 300 299 299 299 299 299 299 299 299 300 300 301 301 301 302 302 302 302 302 301 301 301 301 301 301 301 301 301 301 301 301 301 301 301 301 301 301 301 302 302 302 302 302 302 302 302 301 300 298 296 294 293 292 291 291 290 290 289 288 287 286 285 284 283 282 281 280 279 279 278 277 277 276 276 276 276 276 276 276 276 276 276 275 275
297 297 297 297 297 297 297 298 299 299 300 300 300 300 301 301 301 302 302 302 301 301 301 301 301 302 302 301 301 301 300 300 300 300 300 299 299 299 299 299 300 300 300 300 301 301 300 300 299 298 296 294 292 292 291 291 290 290 289 289 287 286 285 284 283 281 280 279 278 278 277 276 276 276 275 275 275 274 274 274 274 274 274 275 275 275
296 296 296 296 296 297 297 297 298 299 299 299 299 299 300 300 300 301 301 302 301 301 302 302 303 303 303 303 302 301 301 301 301 301 300 300 299 298 298 298 299 299 299 299 299 299 298 298 297 295 294 292 291 290 290 290 289 289 289 288 287 286 284 283 281 280 279 278 277 277 276 275 275 274 274 274 273 273 272 272 272 272 272 272 272 272
295 296 296 296 297 297 297 297 297 297 297 297 298 298 299 299 299 300 301 301 302 302 303 304 304 304 303 303 303 303 302 302 302 302 302 301 300 299 299 299 299 299 299 299 298 298 297 297 295 294 292 291 290 289 289 288 288 288 288 287 286 285 283 282 281 280 279 278 277 276 276 275 275 274 274 273 272 271 271 271 270 270 270 270 270 270
296 296 296 297 296 296 296 296 296 296 296 296 297 297 298 298 299 299 301 301 302 303 304 305 305 305 305 304 304 304 304 304 304 304 303 302 301 301 300 300 301 300 300 300 299 299 298 297 296 294 293 291 290 290 289 288 287 287 286 285 284 284 283 281 280 279 279 278 277 277 276 276 275 274 274 273 272 271 270 269 269 268 268 268 267 267
295 296 296 296 296 296 296 296 296 296 296 296 296 297 298 298 299 300 301 302 303 304 305 306 306 306 306 306 306 306 306 307 307 306 306 304 303 303 303 303 303 302 302 301 301 300 300 299 297 296 295 294 293 291 290 288 287 286 285 285 284 283 282 281 280 279 279 278 278 277 277 276 276 275 274 273 272 271 270 269 268 267 267 266 266 265
295 296 296 296 296 296 295 295 296 296 296 296 296 297 298 299 300 301 302 303 304 305 306 307 307 307 307 307 307 307 308 308 308 308 308 306 305 304 305 305 305 304 303 303 302 302 301 300 299 298 297 296 295 293 292 290 288 287 286 285 284 283 283 281 281 280 279 278 278 277 276 276 275 274 274 273 272 271 270 268 267 266 265 265 264 263
295 296 296 296 296 296 296 296 296 296 296 296 297 298 299 300 301 302 303 304 305 306 307 307 307 307 307 308 307 308 308 309 309 309 309 308 307 306 306 306 306 305 305 304 303 303 302 301 301 300 299 298 296 294 292 291 290 289 288 287 286 285 284 283 281 280 279 278 277 277 276 275 275 274 273 272 271 270 269 267 266 265 263 262 261 259
295 296 296 296 296 296 296 296 296 297 297 297 298 299 299 300 301 303 304 305 306 307 308 308 307 307 307 308 308 308 308 309 309 309 309 309 308 306 306 306 307 307 306 305 304 304 303 303 303 302 300 299 297 295 293 292 291 291 290 289 288 287 285 284 282 281 280 278 277 276 275 275 274 273 272 271 269 268 267 265 264 263 261 260 258 256
295 295 295 295 296 296 296 297 297 297 297 297 298 299 300 301 302 303 304 305 306 307 308 308 307 307 308 308 308 308 308 308 309 309 309 309 308 307 306 307 307 307 307 306 305 305 305 305 304 303 302 300 298 296 295 294 293 293 292 291 289 288 286 285 283 281 280 278 277 276 275 274 273 272 271 269 268 266 264 263 261 260 258 256 255 253
294 295 295 295 295 296 296 296 296 297 297 298 298 299 300 301 302 303 304 305 306 307 307 307 307 307 308 308 308 307 307 307 308 309 309 309 308 307 306 306 307 307 307 306 306 306 306 306 305 304 303 301 299 298 296 296 295 294 293 292 291 289 287 285 283 281 279 278 277 275 274 273 272 270 269 267 266 264 262 261 259 257 256 254 252 251
294 294 294 294 295 295 296 296 296 296 297 298 299 299 300 301 302 302 304 305 306 306 307 307 307 307 307 307 307 307 307 307 307 308 309 309 308 307 306 306 307 308 307 306 306 306 306 306 306 305 303 302 300 299 298 297 296 295 295 293 292 290 288 286 284 281 279 277 276 274 273 271 270 269 267 266 264 262 260 259 257 256 254 253 252 251
294 294 294 294 294 295 295 296 296 296 297 298 299 299 300 301 302 302 303 304 305 306 306 306 307 307 307 307 307 307 307 307 308 308 309 309 308 307 307 307 308 308 307 307 306 306 306 306 306 305 304 302 300 299 298 297 297 296 295 294 292 290 288 286 284 281 279 277 275 273 271 270 269 267 266 264 262 261 259 258 257 256 255 254 253 253
293 294 294 294 294 294 295 295 296 296 297 298 299 299 300 301 302 302 303 304 304 305 305 306 306 306 306 307 307 307 306 307 308 309 309 309 309 308 308 308 308 309 308 307 307 307 307 306 306 305 304 302 301 299 298 298 297 296 295 293 292 290 288 286 284 281 279 276 274 272 270 269 267 266 264 263 261 260 259 258 257 257 257 256 256 256
293 293 294 294 294 294 295 295 295 296 296 297 298 299 299 300 301 302 302 303 304 304 305 305 305 305 305 305 305 305 305 306 307 307 308 309 309 309 308 308 309 309 309 308 307 307 307 307 306 305 304 303 301 300 299 298 297 296 295 293 292 290 288 285 283 280 278 275 273 271 269 268 266 265 264 262 261 261 260 259 259 259 259 258 258 258
292 292 293 294 294 294 295 295 295 295 296 296 297 297 298 298 299 300 301 302 302 303 303 304 304 304 304 304 304 304 304 305 305 306 307 308 309 309 308 308 308 309 309 308 307 307 307 307 306 305 304 303 302 300 299 298 297 296 294 293 291 289 287 284 282 279 277 274 272 270 269 267 266 264 263 263 262 261 261 261 261 260 260 260 260 259
290 291 291 292 293 294 294 295 295 295 295 295 295 296 296 297 298 299 299 300 301 302 302 303 303 302 303 303 303 303 303 304 304 305 306 307 308 308 308 308 308 309 309 308 308 308 308 307 306 305 304 303 302 301 300 298 297 295 293 291 290 287 285 283 280 278 275 273 271 269 267 266 265 264 263 263 262 262 262 262 261 261 261 261 260 260
289 289 290 290 291 292 292 293 294 294 294 295 295 295 295 296 297 297 298 299 300 301 302 302 302 302 302 302 302 302 303 303 304 304 305 307 308 308 307 308 308 308 308 308 308 308 308 307 306 306 305 304 303 302 300 298 296 294 292 290 288 286 284 281 278 276 273 271 269 267 266 265 264 263 263 262 262 262 262 261 261 261 261 261 260 260
290 290 290 290 290 291 291 292 292 293 293 294 294 295 295 296 296 297 297 298 299 300 300 301 301 301 301 301 301 302 302 303 303 304 305 307 307 307 307 308 308 308 308 308 308 308 308 307 307 306 306 305 304 303 301 299 296 294 291 289 287 284 282 280 277 275 272 270 268 266 265 264 263 263 262 262 261 261 261 261 261 261 261 261 260 259
291 291 291 291 291 291 291 291 292 292 293 293 294 294 295 295 296 296 297 298 298 299 299 300 300 300 300 301 301 301 301 302 303 304 305 307 307 307 307 307 307 307 307 307 308 308 307 306 306 305 306 305 305 303 301 299 296 293 290 287 285 282 280 278 276 274 272 270 268 266 265 264 263 262 262 262 262 262 262 262 261 261 261 261 260 259
292 291 291 291 291 291 291 291 291 292 292 293 293 294 294 295 295 296 296 297 298 298 299 299 299 300 300 301 301 301 301 302 302 303 305 306 306 306 306 307 307 307 307 307 307 307 307 306 305 304 304 304 304 303 301 299 297 294 290 287 283 280 278 276 274 273 271 270 268 266 265 264 263 262 262 262 262 262 262 262 261 261 261 260 259 258
292 292 291 291 290 290 290 290 290 290 291 291 292 292 293 294 295 295 296 297 297 298 299 299 300 300 300 301 301 302 302 302 303 303 304 305 306 306 306 306 307 307 307 307 307 307 307 306 305 303 302 302 302 301 301 299 297 294 291 287 283 280 277 275 273 271 269 268 267 266 265 264 263 263 262 262 262 262 262 261 261 261 260 259 258 256
294 293 292 291 291 290 290 290 290 290 290 291 291 292 293 293 294 295 296 297 297 298 299 299 300 300 301 301 301 302 302 302 303 303 304 305 305 305 306 306 307 307 307 307 307 307 307 306 305 304 302 301 299 299 298 298 297 295 293 289 285 281 277 274 271 269 268 267 265 264 264 263 263 262 262 262 261 261 261 261 260 260 259 258 257 256
296 295 294 293 292 292 291 291 291 291 291 291 292 292 293 294 295 295 296 297 298 299 299 300 300 301 301 301 301 301 302 302 302 303 303 304 305 305 306 306 306 306 306 306 306 306 306 305 304 303 302 300 298 297 296 295 295 294 293 291 288 283 279 275 272 269 267 265 264 263 263 263 262 262 262 261 261 260 260 260 259 259 258 257 256 255
297 296 295 295 294 294 293 293 292 292 292 292 293 293 293 294 295 296 296 297 298 299 300 300 301 301 301 301 301 301 301 301 301 302 303 303 304 305 305 305 306 306 306 306 305 305 305 304 303 302 301 300 297 295 294 293 292 292 292 291 289 286 283 279 275 271 267 265 264 263 262 262 262 262 262 261 261 260 260 259 259 258 257 257 256 255
298 297 297 296 296 295 294 294 294 293 293 293 293 294 294 295 295 296 297 297 298 299 299 300 300 301 301 301 301 301 301 301 301 302 302 303 304 304 305 305 305 305 306 306 306 305 305 304 303 302 301 299 297 295 293 291 290 289 288 288 288 287 286 283 279 275 271 268 265 264 263 262 262 262 262 262 261 261 260 260 259 258 258 257 257 256
300 299 298 297 297 296 296 295 295 294 294 294 294 294 294 295 295 296 297 297 298 299 299 299 299 300 300 300 300 300 301 301 301 302 303 303 304 305 306 306 306 306 306 307 306 306 306 305 304 302 301 299 297 295 293 291 288 286 285 284 285 285 285 284 283 280 277 273 270 267 265 263 263 262 262 262 262 262 261 261 260 259 259 259 258 258
302 300 300 299 298 298 297 296 296 295 295 295 295 295 295 295 295 296 296 297 297 298 298 298 299 299 299 299 300 300 300 301 302 303 303 304 305 306 306 307 307 307 307 307 307 307 307 306 305 303 302 300 298 296 294 291 288 285 283 282 282 282 282 283 283 282 281 278 275 272 269 267 265 264 264 263 263 262 262 262 261 261 260 260 260 260
303 302 301 300 299 299 298 297 296 296 296 296 295 295 295 295 295 295 296 296 296 297 297 298 298 298 298 299 299 300 301 301 302 303 304 305 305 306 307 308 308 308 308 308 308 307 307 306 305 304 303 301 299 297 295 292 288 285 283 281 279 279 279 280 281 282 281 281 279 277 274 272 270 268 266 266 265 264 264 263 263 262 262 262 262 262
305 304 303 302 301 300 299 298 297 296 296 296 296 295 295 295 295 295 295 295 296 296 297 297 298 298 299 299 299 300 300 301 302 302 303 304 305 306 307 308 308 308 308 308 307 307 306 306 305 304 303 302 301 299 297 293 289 286 283 281 279 278 278 278 278 279 280 280 279 279 277 276 274 272 270 269 268 267 266 266 265 265 264 264 264 265
308 306 305 303 302 301 299 298 297 297 296 296 295 295 295 294 294 294 295 295 295 296 296 297 298 298 299 299 300 300 300 301 302 302 303 304 305 306 307 307 307 307 307 307 307 306 305 305 304 303 302 302 301 300 297 294 291 288 286 283 281 279 278 277 276 276 277 277 278 278 278 277 276 275 274 273 272 271 269 269 268 268 267 267 267 267
308 307 306 305 303 302 300 299 298 297 296 296 295 295 294 294 294 294 295 295 295 296 296 297 298 298 299 299 299 299 300 300 301 301 302 303 304 305 306 306 307 307 307 307 306 306 305 304 304 303 302 302 301 299 298 295 293 290 288 285 283 281 278 277 276 275 275 275 276 276 276 277 277 277 276 275 274 274 273 272 271 270 270 269 269 269
308 307 306 305 303 302 301 299 298 297 296 295 295 294 294 294 294 294 295 295 296 296 297 297 298 298 299 299 298 299 299 299 299 300 301 302 303 304 305 306 306 307 307 307 307 306 305 305 304 303 303 302 301 300 298 296 293 291 289 288 285 283 280 278 277 276 275 274 274 275 275 275 276 276 276 276 275 275 274 274 273 272 272 271 271 271
306 305 305 304 302 301 300 299 297 296 296 295 294 293 293 293 293 294 295 295 296 297 297 298 299 299 299 299 299 299 299 299 300 300 301 302 303 304 305 306 307 308 308 308 307 306 306 305 304 304 303 303 302 300 298 296 294 292 291 289 287 285 283 281 278 277 275 275 274 274 274 274 275 275 275 275 274 274 274 274 274 273 273 273 272 272
305 304 304 303 302 300 299 298 297 296 295 294 293 293 293 293 293 294 295 295 296 297 298 298 299 299 299 299 299 300 300 300 301 301 302 303 304 305 306 307 308 308 309 308 307 307 306 305 305 304 303 303 302 300 298 297 295 294 292 290 289 287 285 282 280 278 277 276 275 275 275 275 275 275 274 274 274 274 274 274 274 274 273 273 273 273
304 303 303 302 301 299 298 297 296 295 294 293 293 293 292 293 293 294 295 295 296 297 298 298 299 299 300 300 300 300 300 301 301 302 303 304 305 306 307 307 308 308 308 308 307 306 306 305 304 304 303 302 301 300 298 297 296 294 293 291 290 288 286 284 282 281 279 278 277 276 276 276 276 275 275 274 274 274 274 274 274 274 274 274 274 274
302 302 302 301 300 299 297 296 295 294 293 292 292 292 292 292 293 293 294 295 296 297 298 299 299 300 300 300 300 300 300 301 302 303 303 304 305 306 307 307 308 308 308 307 306 306 305 304 303 302 302 300 299 298 296 295 295 294 292 291 290 288 287 285 284 282 281 280 279 278 278 277 277 276 276 275 275 275 275 275 275 275 275 274 274 274
301 301 301 300 299 298 296 295 293 292 292 291 291 291 291 292 292 292 293 294 296 297 298 299 300 300 300 300 300 300 301 301 302 303 304 305 305 306 307 307 307 308 307 307 306 305 305 304 303 302 301 300 298 297 295 294 293 292 291 290 289 288 286 285 284 283 282 281 280 280 279 278 278 277 277 277 276 276 275 275 275 275 275 275 274 274
301 301 301 300 299 297 296 294 293 291 291 290 290 290 290 291 291 292 293 295 296 298 299 300 300 301 300 300 300 300 301 302 302 303 304 305 305 306 306 307 307 307 307 306 306 306 305 305 304 303 302 300 299 297 296 295 294 293 291 290 289 288 286 285 284 283 282 282 281 280 280 279 279 278 278 278 277 277 276 276 276 276 275 275 274 274
301 301 301 300 299 297 295 294 292 291 290 289 289 289 289 290 291 292 293 295 297 298 299 300 300 300 300 300 300 300 301 302 302 303 304 304 305 306 306 306 306 307 307 306 306 306 306 306 305 305 303 301 300 298 297 296 295 293 292 291 289 288 286 285 284 283 282 281 281 280 280 279 279 279 279 279 278 278 277 277 276 276 276 275 275 274
Height
3084 3084 3083 3083 3082 3082 3082 3081 3081 3080 3079 3079 3078 3077 3076 3075 3074 3074 3073 3072 3071 3070 3069 3068 3068 3067 3066 3065 3064 3064 3063 3063 3062 3061 3061 3060 3060 3059 3059 3058 3057 3056 3056 3055 3054 3054 3053 3052 3051 3050 3049 3049 3048 3048 3047 3047 3047 3046 3046 3046 3046 3046 3046 3046 3046 3046 3047 3047 3047 3048 3048 3049 3049 3049 3050 3050 3051 3052 3052 3053 3053 3054 3054 3055 3055 3056
3083 3082 3082 3081 3081 3081 3080 3080 3079 3079 3078 3077 3076 3075 3075 3074 3073 3072 3072 3071 3070 3069 3068 3068 3067 3066 3065 3064 3064 3063 3062 3062 3061 3060 3060 3059 3059 3058 3057 3056 3056 3055 3054 3054 3053 3052 3052 3051 3050 3049 3049 3048 3047 3047 3046 3046 3046 3046 3046 3045 3045 3045 3045 3045 3046 3046 3046 3046 3046 3047 3047 3047 3048 3048 3049 3049 3050 3050 3051 3051 3052 3052 3053 3053 3054 3054
3081 3081 3080 3080 3080 3079 3079 3078 3078 3077 3076 3076 3075 3074 3074 3073 3072 3071 3070 3070 3069 3068 3067 3066 3065 3065 3064 3063 3063 3062 3061 3060 3060 3059 3059 3058 3057 3057 3056 3055 3054 3054 3053 3053 3052 3051 3050 3050 3049 3048 3048 3047 3047 3046 3046 3045 3045 3045 3045 3045 3045 3045 3045 3045 3045 3045 3045 3045 3045 3046 3046 3046 3047 3047 3047 3048 3048 3049 3049 3049 3050 3050 3051 3051 3052 3052
3079 3079 3079 3079 3078 3078 3077 3077 3076 3076 3075 3074 3074 3073 3072 3072 3071 3070 3069 3069 3068 3067 3066 3065 3064 3064 3063 3062 3061 3061 3060 3059 3059 3058 3057 3057 3056 3055 3055 3054 3054 3053 3052 3051 3051 3050 3049 3049 3048 3048 3047 3046 3046 3046 3045 3045 3044 3044 3044 3044 3044 3044 3044 3044 3044 3044 3044 3044 3044 3044 3044 3044 3045 3045 3046 3046 3046 3047 3047 3048 3048 3049 3049 3049 3050 3050
3078 3078 3078 3077 3077 3076 3076 3075 3075 3074 3074 3073 3073 3072 3071 3070 3070 3069 3068 3067 3067 3066 3065 3064 3063 3063 3062 3061 3060 3060 3059 3058 3058 3057 3056 3055 3055 3054 3054 3053 3052 3052 3051 3050 3049 3049 3048 3048 3047 3046 3046 3045 3045 3045 3044 3044 3044 3044 3043 3043 3043 3042 3042 3042 3042 3042 3042 3042 3042 3043 3043 3043 3043 3044 3044 3044 3044 3045 3045 3046 3046 3046 3047 3047 3048 3048
3077 3076 3076 3076 3075 3075 3074 3074 3074 3073 3073 3072 3071 3071 3070 3069 3069 3068 3067 3066 3065 3064 3064 3063 3062 3061 3061 3060 3059 3059 3058 3057 3056 3056 3055 3054 3054 3053 3052 3052 3051 3050 3049 3049 3048 3048 3047 3046 3046 3045 3044 3044 3044 3044 3043 3043 3043 3042 3042 3042 3041 3041 3041 3041 3040 3040 3040 3040 3040 3041 3041 3041 3041 3041 3042 3042 3043 3043 3043 3044 3044 3044 3044 3045 3045 3046
3075 3075 3074 3074 3074 3073 3073 3073 3072 3072 3071 3071 3070 3069 3069 3068 3067 3067 3066 3065 3064 3063 3063 3062 3061 3060 3059 3059 3058 3057 3056 3056 3055 3054 3054 3053 3052 3051 3051 3050 3049 3049 3048 3047 3047 3046 3045 3045 3044 3044 3043 3043 3042 3042 3041 3041 3041 3040 3040 3040 3039 3039 3039 3039 3039 3039 3039 3039 3039 3039 3039 3039 3039 3039 3040 3040 3040 3041 3041 3041 3041 3042 3042 3042 3043 3043
3074 3074 3073 3073 3072 3072 3071 3071 3071 3070 3070 3069 3069 3068 3068 3067 3066 3065 3064 3064 3063 3062 3061 3060 3059 3059 3058 3057 3056 3056 3055 3054 3054 3053 3052 3051 3051 3050 3049 3049 3048 3047 3047 3046 3045 3045 3044 3044 3043 3042 3042 3041 3041 3040 3039 3039 3039 3038 3038 3038 3038 3037 3037 3037 3037 3037 3037 3037 3037 3037 3037 3037 3037 3037 3038 3038 3038 3039 3039 3039 3039 3039 3039 3040 3040 3040
3073 3072 3072 3071 3071 3070 3070 3069 3069 3069 3068 3068 3067 3067 3066 3065 3065 3064 3063 3063 3062 3061 3060 3059 3058 3057 3057 3056 3055 3054 3054 3053 3052 3051 3051 3050 3049 3049 3048 3047 3047 3046 3045 3045 3044 3044 3043 3042 3042 3041 3041 3040 3039 3039 3038 3037 3037 3036 3036 3036 3035 3035 3035 3035 3035 3035 3035 3035 3035 3035 3035 3035 3035 3035 3035 3035 3036 3036 3036 3036 3036 3037 3037 3037 3037 3038
3071 3071 3070 3070 3069 3069 3069 3068 3068 3068 3067 3066 3066 3065 3064 3064 3063 3063 3062 3061 3060 3059 3059 3058 3057 3056 3055 3054 3054 3053 3052 3051 3051 3050 3049 3049 3048 3047 3047 3046 3045 3045 3044 3044 3043 3042 3042 3041 3041 3040 3039 3039 3038 3037 3037 3036 3035 3035 3034 3034 3034 3034 3034 3033 3033 3033 3033 3033 3033 3033 3032 3032 3032 3033 3033 3033 3033 3033 3033 3033 3033 3034 3034 3034 3034 3034
3070 3069 3069 3069 3068 3068 3067 3067 3066 3066 3065 3065 3064 3064 3063 3062 3062 3061 3060 3059 3059 3058 3057 3056 3056 3055 3054 3054 3053 3052 3051 3050 3049 3049 3048 3047 3047 3046 3045 3044 3044 3044 3043 3042 3042 3041 3040 3040 3039 3039 3038 3037 3036 3036 3035 3034 3034 3034 3033 3033 3033 3032 3032 3032 3031 3031 3031 3031 3030 3030 3030 3030 3030 3030 3030 3030 3030 3030 3030 3030 3030 3030 3030 3030 3030 3031
3069 3068 3068 3067 3067 3066 3066 3065 3065 3064 3064 3063 3063 3062 3061 3060 3060 3059 3059 3058 3057 3056 3056 3055 3054 3054 3053 3052 3052 3051 3050 3049 3049 3048 3047 3046 3045 3044 3044 3043 3043 3042 3042 3041 3040 3040 3039 3039 3038 3037 3037 3036 3035 3034 3034 3033 3033 3032 3032 3031 3031 3031 3030 3030 3030 3029 3029 3029 3029 3029 3028 3028 3028 3028 3028 3028 3028 3028 3028 3028 3028 3027 3027 3027 3027 3027
3068 3067 3067 3066 3066 3065 3064 3064 3063 3063 3062 3061 3061 3060 3059 3059 3058 3058 3057 3056 3055 3055 3054 3053 3053 3052 3051 3051 3050 3049 3049 3048 3047 3046 3046 3045 3044 3043 3043 3042 3041 3041 3040 3039 3039 3038 3038 3037 3036 3036 3035 3034 3033 3033 3032 3031 3031 3030 3030 3030 3029 3029 3029 3029 3028 3028 3027 3027 3027 3026 3026 3026 3026 3026 3026 3026 3025 3025 3025 3025 3025 3025 3025 3025 3025 3025
3066 3066 3065 3065 3064 3064 3063 3063 3062 3061 3061 3060 3059 3059 3058 3057 3057 3056 3055 3054 3054 3053 3052 3052 3051 3050 3050 3049 3048 3048 3047 3047 3046 3045 3044 3044 3043 3042 3041 3041 3040 3039 3039 3038 3038 3037 3036 3035 3035 3034 3033 3032 3032 3031 3030 3029 3029 3029 3028 3028 3027 3027 3027 3026 3026 3026 3025 3025 3024 3024 3024 3024 3024 3024 3024 3023 3023 3023 3023 3023 3023 3023 3023 3023 3023 3023
3065 3064 3064 3064 3063 3063 3062 3061 3060 3060 3059 3059 3058 3057 3056 3056 3055 3054 3054 3053 3052 3051 3051 3050 3049 3049 3048 3047 3047 3046 3045 3045 3044 3044 3043 3042 3041 3040 3040 3039 3039 3038 3037 3037 3036 3035 3034 3034 3033 3032 3031 3031 3030 3029 3028 3028 3027 3026 3026 3026 3025 3025 3024 3024 3024 3023 3023 3023 3022 3022 3022 3022 3021 3021 3021 3021 3021 3021 3021 3020 3020 3020 3020 3020 3020 3020
3064 3063 3063 3062 3062 3061 3060 3059 3059 3059 3058 3057 3056 3056 3055 3054 3053 3053 3052 3051 3050 3050 3049 3049 3048 3047 3046 3045 3045 3044 3044 3043 3043 3042 3041 3040 3039 3038 3038 3038 3037 3036 3035 3035 3034 3034 3033 3032 3031 3030 3029 3029 3028 3027 3026 3026 3025 3024 3024 3024 3023 3023 3022 3022 3021 3021 3021 3020 3020 3019 3019 3019 3019 3019 3019 3018 3018 3018 3018 3018 3018 3018 3018 3018 3018 3018
3062 3062 3061 3061 3060 3059 3059 3058 3057 3057 3056 3055 3055 3054 3053 3053 3052 3051 3050 3049 3049 3048 3048 3047 3046 3045 3044 3044 3043 3042 3042 3041 3041 3040 3039 3038 3037 3036 3036 3035 3035 3034 3034 3033 3032 3031 3031 3030 3029 3028 3027 3027 3026 3025 3024 3024 3023 3022 3022 3021 3021 3020 3020 3019 3019 3019 3018 3018 3017 3017 3017 3017 3016 3016 3016 3016 3015 3015 3015 3015 3015 3015 3015 3015 3015 3015
3060 3060 3059 3059 3059 3058 3057 3056 3056 3055 3054 3054 3053 3052 3052 3051 3050 3049 3049 3048 3047 3047 3046 3045 3044 3043 3043 3042 3041 3040 3039 3039 3039 3038 3037 3036 3035 3034 3034 3033 3033 3032 3032 3031 3030 3029 3029 3028 3027 3026 3025 3024 3024 3023 3022 3021 3020 3020 3019 3019 3018 3018 3017 3017 3017 3016 3016 3015 3015 3015 3014 3014 3014 3014 3013 3013 3013 3013 3013 3013 3013 3013 3013 3013 3013 3013
3059 3058 3058 3057 3057 3056 3055 3055 3054 3054 3053 3052 3051 3051 3050 3049 3049 3048 3047 3046 3045 3045 3044 3043 3043 3042 3041 3040 3039 3039 3038 3037 3037 3036 3035 3034 3033 3032 3031 3031 3030 3030 3029 3028 3028 3027 3026 3025 3025 3024 3023 3022 3021 3020 3019 3019 3018 3017 3017 3016 3016 3015 3015 3014 3014 3014 3013 3013 3013 3012 3012 3012 3011 3011 3011 3011 3010 3010 3010 3010 3010 3010 3010 3010 3011 3011
3057 3056 3056 3055 3055 3054 3054 3053 3052 3052 3051 3050 3050 3049 3048 3047 3047 3046 3045 3044 3044 3043 3042 3041 3041 3040 3039 3038 3037 3037 3036 3035 3035 3034 3034 3033 3031 3030 3029 3029 3028 3028 3027 3026 3025 3024 3024 3023 3022 3022 3021 3020 3019 3018 3017 3016 3015 3015 3014 3014 3014 3013 3013 3012 3012 3011 3011 3010 3010 3010 3009 3009 3009 3009 3008 3008 3008 3008 3008 3008 3008 3008 3008 3008 3009 3009
3055 3054 3054 3054 3053 3052 3052 3051 3051 3050 3049 3049 3048 3047 3046 3046 3045 3044 3043 3043 3042 3041 3040 3039 3039 3038 3037 3036 3035 3035 3034 3033 3033 3032 3032 3031 3029 3028 3027 3027 3026 3025 3024 3024 3023 3022 3021 3021 3020 3019 3018 3017 3016 3015 3014 3014 3013 3013 3012 3012 3011 3011 3010 3010 3009 3009 3008 3008 3008 3007 3007 3007 3006 3006 3006 3006 3006 3006 3006 3006 3006 3006 3006 3006 3007 3007
3053 3053 3052 3052 3051 3051 3050 3050 3049 3048 3048 3047 3046 3045 3045 3044 3043 3042 3042 3041 3040 3039 3039 3038 3037 3036 3035 3034 3034 3033 3032 3031 3031 3030 3030 3029 3028 3027 3025 3024 3024 3023 3022 3021 3020 3019 3019 3018 3018 3017 3016 3015 3014 3013 3012 3011 3010 3010 3009 3009 3009 3008 3008 3007 3007 3006 3006 3005 3005 3005 3004 3004 3004 3004 3004 3004 3004 3004 3004 3004 3004 3004 3004 3005 3005 3005
3052 3051 3051 3050 3050 3049 3049 3048 3047 3046 3046 3045 3044 3044 3043 3042 3041 3040 3040 3039 3038 3038 3037 3036 3035 3034 3033 3032 3031 3030 3030 3029 3029 3028 3028 3027 3026 3025 3024 3023 3022 3021 3020 3019 3018 3017 3017 3016 3015 3014 3014 3012 3011 3010 3009 3009 3008 3007 3007 3007 3006 3006 3005 3005 3004 3004 3004 3003 3003 3003 3002 3002 3002 3002 3002 3002 3002 3002 3002 3002 3002 3002 3003 3003 3003 3004
3050 3049 3049 3048 3048 3047 3047 3046 3045 3045 3044 3043 3043 3042 3041 3040 3039 3039 3038 3037 3036 3036 3035 3034 3033 3032 3031 3030 3029 3028 3027 3027 3026 3026 3025 3025 3024 3023 3022 3021 3020 3019 3018 3017 3016 3015 3014 3014 3013 3012 3011 3010 3009 3008 3007 3006 3006 3005 3004 3004 3004 3003 3003 3002 3002 3002 3001 3001 3001 3000 3000 3000 3000 3000 3000 3000 3000 3000 3000 3000 3000 3001 3001 3001 3001 3002
3048 3047 3047 3046 3046 3045 3045 3044 3044 3043 3042 3041 3040 3040 3039 3038 3037 3036 3036 3035 3034 3034 3033 3032 3031 3030 3029 3028 3027 3026 3025 3024 3024 3024 3023 3023 3022 3020 3019 3019 3018 3017 3016 3014 3014 3013 3012 3012 3011 3010 3009 3008 3007 3006 3005 3004 3003 3003 3002 3002 3001 3001 3000 3000 2999 2999 2999 2999 2998 2998 2998 2998 2998 2998 2998 2998 2998 2998 2998 2998 2999 2999 2999 2999 3000 3000
3046 3045 3045 3044 3044 3043 3043 3042 3041 3041 3040 3039 3039 3038 3037 3036 3035 3034 3034 3033 3032 3032 3031 3030 3029 3029 3027 3026 3025 3024 3024 3023 3022 3021 3021 3020 3019 3019 3017 3016 3015 3014 3014 3012 3011 3010 3010 3009 3009 3008 3007 3006 3005 3004 3003 3002 3001 3000 3000 2999 2999 2999 2998 2998 2997 2997 2997 2996 2996 2996 2996 2996 2996 2996 2996 2996 2996 2996 2996 2996 2997 2997 2997 2997 2998 2998
3044 3044 3043 3042 3042 3041 3040 3040 3039 3039 3038 3038 3037 3036 3035 3034 3034 3033 3032 3031 3030 3030 3029 3029 3028 3027 3026 3025 3024 3023 3022 3021 3020 3019 3019 3018 3018 3017 3015 3014 3014 3013 3012 3010 3009 3008 3008 3007 3006 3006 3005 3004 3003 3002 3001 3000 2999 2999 2998 2997 2997 2996 2996 2995 2995 2995 2995 2994 2994 2994 2994 2994 2994 2994 2994 2994 2994 2994 2994 2994 2995 2995 2995 2995 2996 2996
3043 3042 3042 3041 3040 3039 3039 3038 3037 3037 3036 3036 3035 3034 3034 3033 3032 3031 3030 3029 3029 3028 3027 3026 3026 3025 3024 3023 3022 3021 3020 3019 3018 3018 3017 3016 3015 3015 3014 3012 3011 3010 3009 3009 3007 3006 3005 3004 3004 3003 3003 3002 3001 3000 2999 2998 2998 2997 2996 2995 2995 2994 2994 2994 2993 2993 2993 2992 2992 2992 2992 2992 2992 2992 2992 2992 2992 2992 2992 2993 2993 2993 2993 2993 2994 2994
3042 3041 3040 3039 3039 3038 3037 3036 3036 3035 3034 3034 3033 3032 3031 3031 3030 3029 3029 3028 3027 3026 3025 3024 3024 3023 3022 3021 3020 3019 3018 3017 3016 3015 3015 3014 3014 3013 3011 3010 3009 3009 3008 3007 3005 3004 3003 3002 3001 3000 3000 2999 2999 2998 2997 2996 2996 2995 2994 2993 2993 2992 2992 2991 2991 2991 2991 2990 2990 2990 2990 2990 2990 2990 2990 2990 2990 2990 2990 2990 2991 2991 2991 2991 2992 2992
3040 3039 3039 3038 3037 3036 3035 3035 3034 3033 3032 3032 3031 3030 3029 3029 3028 3027 3026 3026 3025 3024 3023 3023 3022 3021 3020 3019 3018 3017 3016 3015 3014 3013 3013 3012 3011 3010 3009 3008 3007 3006 3005 3005 3004 3003 3002 3000 2999 2997 2997 2997 2996 2996 2995 2994 2994 2993 2992 2991 2991 2990 2990 2989 2989 2989 2989 2989 2989 2988 2988 2988 2988 2988 2988 2988 2988 2989 2989 2989 2989 2989 2989 2989 2989 2990
3038 3037 3037 3036 3035 3034 3034 3033 3032 3031 3030 3029 3029 3028 3027 3026 3026 3025 3024 3024 3023 3022 3021 3020 3019 3019 3018 3017 3016 3015 3014 3013 3012 3011 3010 3010 3009 3008 3007 3006 3005 3004 3003 3003 3002 3001 3000 2999 2997 2995 2994 2994 2993 2993 2993 2992 2992 2991 2990 2990 2989 2988 2988 2987 2987 2987 2987 2987 2986 2986 2986 2986 2986 2986 2986 2986 2986 2986 2987 2987 2987 2987 2987 2987 2988 2988
3036 3035 3035 3034 3033 3033 3032 3031 3030 3029 3029 3028 3027 3026 3025 3024 3023 3023 3022 3021 3020 3020 3019 3018 3017 3016 3015 3014 3014 3013 3012 3011 3010 3009 3008 3008 3007 3006 3005 3004 3003 3002 3001 3000 3000 2999 2999 2998 2997 2995 2993 2992 2991 2990 2989 2989 2989 2989 2989 2988 2987 2987 2986 2985 2985 2985 2985 2984 2984 2984 2984 2984 2984 2984 2984 2984 2984 2984 2984 2985 2985 2985 2985 2985 2986 2986
3034 3033 3033 3032 3031 3030 3030 3029 3028 3027 3027 3026 3025 3024 3023 3022 3021 3020 3020 3019 3018 3018 3017 3016 3015 3014 3013 3012 3011 3010 3009 3009 3008 3007 3006 3005 3004 3004 3003 3002 3001 3000 2999 2998 2997 2996 2996 2995 2995 2994 2992 2991 2989 2988 2987 2986 2986 2986 2986 2986 2985 2985 2984 2984 2983 2983 2983 2983 2983 2982 2982 2982 2982 2982 2982 2982 2982 2983 2983 2983 2983 2983 2983 2983 2984 2984
3032 3031 3030 3030 3029 3028 3028 3027 3026 3025 3024 3024 3023 3022 3021 3020 3019 3018 3017 3017 3016 3015 3014 3014 3013 3012 3011 3010 3009 3008 3007 3006 3005 3004 3004 3003 3002 3001 3000 2999 2999 2998 2997 2996 2995 2994 2993 2993 2992 2991 2990 2989 2988 2987 2985 2984 2983 2983 2983 2983 2983 2982 2982 2982 2982 2981 2981 2981 2981 2980 2980 2980 2980 2980 2980 2980 2980 2980 2980 2981 2981 2981 2981 2981 2981 2982
3029 3029 3028 3027 3027 3026 3025 3024 3024 3023 3022 3021 3020 3019 3019 3018 3017 3016 3015 3014 3014 3013 3012 3011 3010 3009 3009 3008 3007 3006 3005 3004 3003 3002 3001 3001 3000 2999 2998 2997 2996 2995 2994 2994 2993 2992 2991 2990 2990 2989 2988 2988 2987 2985 2984 2982 2981 2980 2979 2979 2979 2979 2979 2979 2979 2979 2979 2979 2979 2978 2978 2978 2978 2978 2978 2978 2978 2978 2978 2979 2979 2979 2979 2979 2979 2979
3027 3026 3025 3025 3024 3024 3023 3022 3021 3021 3020 3019 3018 3017 3016 3016 3015 3014 3013 3012 3011 3010 3009 3009 3008 3007 3006 3005 3004 3004 3003 3002 3001 3000 2999 2998 2998 2997 2996 2995 2994 2993 2992 2991 2991 2990 2989 2989 2988 2987 2986 2985 2984 2984 2982 2981 2980 2978 2977 2976 2976 2975 2976 2976 2976 2977 2977 2976 2976 2976 2976 2975 2975 2975 2975 2976 2976 2976 2976 2976 2976 2976 2976 2976 2976 2977
3025 3024 3023 3023 3022 3021 3020 3020 3019 3018 3018 3017 3016 3015 3014 3014 3013 3012 3011 3010 3009 3009 3008 3007 3006 3004 3004 3003 3002 3001 3000 2999 2998 2998 2997 2996 2995 2994 2994 2993 2992 2991 2990 2989 2988 2988 2987 2986 2985 2984 2984 2983 2982 2981 2980 2979 2979 2977 2976 2974 2973 2972 2972 2972 2973 2973 2974 2974 2974 2974 2973 2973 2973 2973 2973 2973 2973 2974 2974 2974 2974 2974 2974 2974 2974 2974
3022 3022 3021 3020 3020 3019 3018 3017 3017 3016 3015 3014 3014 3013 3012 3011 3010 3010 3009 3008 3007 3006 3005 3004 3004 3003 3001 3000 2999 2999 2998 2997 2996 2995 2994 2993 2993 2992 2991 2990 2989 2988 2987 2986 2985 2985 2984 2984 2983 2982 2981 2981 2980 2979 2978 2977 2977 2975 2974 2973 2971 2970 2969 2969 2969 2969 2970 2970 2970 2971 2971 2970 2970 2970 2970 2971 2971 2971 2971 2971 2971 2971 2971 2971 2971 2971
3020 3019 3019 3018 3017 3017 3016 3015 3014 3014 3013 3012 3011 3010 3010 3009 3008 3008 3007 3006 3005 3004 3003 3002 3001 3000 2999 2998 2997 2996 2995 2994 2994 2993 2992 2991 2990 2989 2989 2988 2987 2986 2985 2984 2983 2982 2981 2980 2980 2979 2979 2978 2977 2977 2976 2975 2974 2973 2972 2971 2970 2969 2968 2966 2966 2966 2966 2966 2967 2967 2967 2968 2968 2968 2968 2968 2968 2968 2968 2968 2968 2968 2968 2968 2968 2968
3018 3017 3016 3016 3015 3014 3014 3013 3012 3011 3010 3009 3009 3008 3007 3007 3006 3005 3004 3004 3003 3002 3001 3000 2999 2998 2997 2996 2995 2994 2993 2992 2991 2991 2990 2989 2988 2987 2986 2985 2984 2983 2982 2981 2980 2979 2979 2978 2977 2976 2975 2975 2974 2974 2973 2973 2972 2971 2970 2969 2968 2967 2966 2965 2964 2963 2963 2963 2963 2963 2964 2964 2964 2965 2965 2965 2965 2965 2965 2965 2965 2965 2965 2965 2965 2965
3016 3015 3014 3014 3013 3012 3011 3010 3009 3009 3008 3007 3006 3005 3005 3004 3003 3003 3002 3001 3000 2999 2999 2998 2997 2996 2995 2994 2993 2992 2991 2990 2989 2989 2988 2987 2986 2985 2984 2983 2982 2981 2980 2979 2978 2977 2976 2975 2974 2974 2973 2972 2971 2971 2970 2970 2969 2968 2967 2967 2966 2965 2964 2964 2962 2961 2960 2960 2959 2959 2960 2960 2961 2961 2962 2962 2962 2962 2962 2962 2962 2962 2962 2962 2962 2962
3014 3013 3012 3011 3010 3010 3009 3008 3007 3006 3005 3004 3004 3003 3002 3001 3001 3000 2999 2999 2998 2997 2996 2995 2994 2994 2993 2992 2990 2989 2989 2988 2987 2986 2985 2984 2984 2983 2982 2981 2980 2979 2978 2977 2976 2975 2974 2973 2972 2971 2970 2969 2969 2969 2968 2967 2966 2965 2965 2964 2964 2963 2963 2962 2961 2959 2959 2958 2957 2957 2957 2957 2957 2958 2959 2959 2959 2959 2959 2959 2959 2959 2959 2959 2959 2959
3012 3011 3010 3009 3008 3007 3006 3005 3005 3004 3003 3002 3001 3001 3000 2999 2998 2998 2997 2996 2995 2994 2994 2993 2992 2991 2990 2989 2988 2987 2986 2985 2984 2984 2983 2982 2981 2980 2979 2979 2978 2977 2976 2975 2974 2973 2972 2971 2970 2969 2968 2967 2966 2966 2965 2964 2964 2963 2962 2962 2961 2961 2960 2959 2959 2958 2957 2956 2955 2954 2954 2954 2954 2954 2955 2955 2956 2956 2956 2956 2956 2956 2956 2956 2956 2956
3009 3009 3008 3007 3006 3005 3004 3003 3002 3002 3001 3000 2999 2998 2997 2997 2996 2995 2994 2994 2993 2992 2991 2990 2989 2989 2988 2987 2986 2985 2984 2983 2982 2981 2980 2979 2979 2978 2977 2976 2975 2974 2973 2972 2971 2970 2969 2968 2967 2966 2965 2964 2964 2963 2963 2962 2961 2960 2959 2959 2959 2958 2958 2957 2956 2955 2954 2954 2953 2952 2952 2952 2952 2952 2952 2952 2953 2953 2953 2953 2953 2953 2953 2953 2953 2954
3007 3006 3005 3004 3004 3003 3002 3001 3000 2999 2998 2998 2997 2996 2995 2994 2994 2993 2992 2991 2990 2989 2989 2988 2987 2986 2985 2984 2983 2982 2981 2980 2979 2978 2977 2977 2976 2975 2974 2973 2973 2972 2971 2970 2969 2968 2967 2966 2965 2964 2963 2962 2961 2961 2960 2959 2959 2958 2957 2957 2956 2955 2955 2954 2954 2953 2952 2951 2951 2950 2949 2949 2949 2949 2950 2950 2950 2950 2950 2950 2950 2950 2950 2950 2950 2950
3005 3004 3003 3002 3001 3000 2999 2998 2997 2996 2996 2995 2994 2993 2993 2992 2991 2990 2990 2989 2988 2987 2986 2985 2985 2984 2983 2982 2981 2979 2979 2977 2976 2975 2974 2974 2973 2972 2971 2970 2970 2969 2968 2967 2966 2965 2964 2964 2963 2961 2960 2960 2959 2958 2957 2957 2956 2955 2955 2954 2954 2953 2952 2952 2951 2950 2950 2949 2949 2948 2947 2947 2947 2947 2947 2947 2947 2947 2947 2947 2947 2947 2947 2947 2947 2947
3003 3001 3000 2999 2998 2997 2996 2995 2994 2994 2993 2992 2991 2991 2990 2989 2989 2988 2987 2987 2986 2985 2984 2983 2982 2982 2981 2979 2979 2978 2976 2975 2974 2973 2972 2971 2970 2969 2969 2968 2967 2966 2966 2965 2964 2963 2962 2961 2960 2959 2959 2958 2957 2956 2955 2954 2954 2953 2952 2952 2951 2950 2950 2949 2948 2948 2947 2947 2946 2945 2945 2945 2944 2944 2944 2944 2944 2945 2945 2944 2944 2944 2944 2944 2944 2944
3000 2999 2998 2997 2996 2995 2994 2993 2992 2991 2990 2989 2989 2988 2987 2987 2986 2985 2985 2984 2983 2983 2982 2981 2980 2979 2978 2977 2976 2975 2974 2973 2972 2971 2970 2969 2968 2967 2966 2965 2964 2964 2963 2962 2962 2961 2960 2959 2958 2957 2956 2955 2955 2954 2953 2952 2951 2950 2950 2949 2949 2948 2947 2947 2946 2945 2944 2944 2944 2943 2943 2942 2942 2942 2942 2942 2942 2942 2942 2942 2942 2941 2941 2941 2941 2941
2998 2997 2995 2994 2993 2992 2991 2990 2989 2989 2988 2987 2986 2985 2985 2984 2984 2983 2982 2982 2981 2980 2979 2979 2978 2977 2976 2975 2974 2973 2972 2971 2970 2969 2968 2967 2965 2964 2964 2963 2962 2961 2960 2960 2959 2959 2958 2957 2956 2955 2954 2953 2952 2951 2951 2950 2949 2949 2948 2947 2946 2946 2945 2944 2944 2943 2942 2942 2941 2940 2940 2940 2939 2939 2939 2939 2939 2939 2939 2939 2939 2939 2939 2938 2938 2938
2995 2994 2993 2992 2991 2990 2989 2988 2987 2986 2985 2984 2984 2983 2982 2982 2981 2980 2980 2979 2979 2978 2977 2976 2976 2975 2974 2973 2972 2971 2970 2969 2968 2967 2965 2964 2963 2962 2961 2960 2959 2959 2958 2957 2956 2956 2955 2954 2954 2953 2952 2951 2950 2949 2948 2948 2947 2946 2945 2944 2944 2943 2943 2942 2941 2940 2940 2939 2939 2938 2938 2937 2937 2936 2936 2936 2936 2936 2936 2936 2936 2936 2936 2935 2935 2935
2992 2991 2990 2989 2988 2987 2986 2985 2984 2984 2983 2982 2981 2980 2980 2979 2979 2978 2977 2977 2976 2975 2975 2974 2973 2972 2971 2970 2969 2969 2968 2967 2965 2964 2963 2962 2961 2960 2959 2958 2957 2956 2955 2954 2954 2953 2952 2952 2951 2950 2949 2949 2948 2947 2946 2945 2944 2944 2943 2942 2941 2941 2940 2939 2939 2938 2938 2937 2936 2936 2935 2934 2934 2934 2933 2933 2933 2933 2933 2934 2934 2933 2933 2932 2932 2932